{"data":{"norad_id":69744,"epoch":"2026-09-19T23:46:29.599104Z","epoch_age_seconds":65478,"freshness":"FRESH","line1":"1 69744U 26150F   26262.99062036  .00013743  00000+0  42722-3 0  9994","line2":"2 69744  97.2837 101.8611 0001776  87.0780 273.0666 15.33446260 13656","mean_motion":15.3344626,"eccentricity":0.0001776,"inclination_deg":97.2837,"raan_deg":101.8611,"arg_perigee_deg":87.078,"mean_anomaly_deg":273.0666,"bstar":0.00042722,"rev_number":1365,"period_min":93.906127496115,"perigee_km":464.323988674,"apogee_km":466.75486254037,"semimajor_km":6843.6764256072,"source":"CELESTRAK","updated_at":"2026-09-20T09:00:44.286974Z"}}